Location: Newark
(22.3828°N, 114.1972°E)
Time: 22:23:32
(UTC+00:00)

ISS - Visible Passes

Search period start: 05 December 2019 00:00
Search period end: 15 December 2019 00:00
Orbit: 412 x 421 km, 51.6° (Epoch: 05 December)

Date Brightness Start Highest point End Pass type
(mag) Time Alt. Az. Time Alt. Az. Time Alt. Az.
10 Dec -1.0 11:20:47 10° NNW 11:21:01 12° NNW 11:21:01 12° NNW visible
11 Dec -2.6 10:32:43 10° N 10:35:30 24° NE 10:36:06 22° ENE visible
12 Dec -2.0 11:20:35 10° WNW 11:23:37 32° SW 11:25:02 22° S visible
13 Dec -3.7 10:31:50 10° NW 10:35:10 78° SW 10:38:30 10° SE visible
